Time,TemperatureF,DewpointF,PressureIn,WindDirection,WindDirectionDegrees,WindSpeedMPH,WindSpeedGustMPH,Humidity,HourlyPrecipIn,Conditions,Clouds,dailyrainin,SolarRadiationWatts/m^2,SoftwareType,DateUTC
2013-09-13 00:02:00,56.0,53.0,-100.00,NE,56,7.0,15.0,91,0.00,,,0.00,1.000000,,2013-09-13 06:02:00,
2013-09-13 00:12:00,56.0,53.0,-100.00,NE,56,7.0,15.0,91,0.00,,,0.00,1.000000,,2013-09-13 06:12:00,
2013-09-13 00:42:00,55.0,53.0,-100.00,East,87,8.0,12.0,93,0.00,,,0.00,1.000000,,2013-09-13 06:42:00,
2013-09-13 00:52:00,55.0,53.0,-100.00,East,87,8.0,12.0,93,0.00,,,0.00,1.000000,,2013-09-13 06:52:00,
2013-09-13 01:02:00,55.0,53.0,-100.00,East,87,8.0,12.0,93,0.00,,,0.00,1.000000,,2013-09-13 07:02:00,
2013-09-13 01:11:00,55.0,53.0,-100.00,East,87,8.0,12.0,93,0.00,,,0.00,1.000000,,2013-09-13 07:11:00,
2013-09-13 01:43:00,55.0,53.0,-100.00,ENE,65,5.0,12.0,93,0.00,,,0.00,1.000000,,2013-09-13 07:43:00,
2013-09-13 01:52:00,55.0,53.0,-100.00,ENE,65,5.0,12.0,93,0.00,,,0.00,1.000000,,2013-09-13 07:52:00,
2013-09-13 02:01:00,55.0,53.0,-100.00,ENE,65,5.0,12.0,93,0.00,,,0.00,1.000000,,2013-09-13 08:01:00,
2013-09-13 02:11:00,55.0,53.0,-100.00,ENE,65,5.0,12.0,93,0.00,,,0.00,1.000000,,2013-09-13 08:11:00,
2013-09-13 02:42:00,54.0,52.0,-100.00,East,83,4.0,6.0,94,0.00,,,0.00,1.000000,,2013-09-13 08:42:00,
2013-09-13 02:52:00,54.0,52.0,-100.00,East,83,4.0,6.0,94,0.00,,,0.00,1.000000,,2013-09-13 08:52:00,
2013-09-13 03:02:00,54.0,52.0,-100.00,East,83,4.0,6.0,94,0.00,,,0.00,1.000000,,2013-09-13 09:02:00,
2013-09-13 03:11:00,54.0,52.0,-100.00,East,83,4.0,6.0,94,0.00,,,0.00,1.000000,,2013-09-13 09:11:00,
2013-09-13 03:43:00,55.0,54.0,-100.00,ENE,62,6.0,9.0,95,0.00,,,0.00,1.000000,,2013-09-13 09:43:00,
2013-09-13 03:54:00,55.0,54.0,-100.00,ENE,62,6.0,9.0,95,0.00,,,0.00,1.000000,,2013-09-13 09:54:00,
2013-09-13 04:03:00,55.0,54.0,-100.00,ENE,62,6.0,9.0,95,0.00,,,0.00,1.000000,,2013-09-13 10:03:00,
2013-09-13 04:12:00,55.0,54.0,-100.00,ENE,62,6.0,9.0,95,0.00,,,0.00,1.000000,,2013-09-13 10:12:00,
2013-09-13 04:42:00,55.0,53.0,-100.00,ENE,72,9.0,13.0,94,0.00,,,0.00,1.000000,,2013-09-13 10:42:00,
2013-09-13 04:53:00,55.0,53.0,-100.00,ENE,72,9.0,13.0,94,0.00,,,0.00,1.000000,,2013-09-13 10:53:00,
2013-09-13 05:03:00,55.0,53.0,-100.00,ENE,72,9.0,13.0,94,0.00,,,0.00,1.000000,,2013-09-13 11:03:00,
2013-09-13 05:12:00,55.0,53.0,-100.00,ENE,72,9.0,13.0,94,0.00,,,0.00,1.000000,,2013-09-13 11:12:00,
2013-09-13 05:42:00,54.0,53.0,-100.00,East,84,7.0,11.0,95,0.00,,,0.00,1.000000,,2013-09-13 11:42:00,
2013-09-13 05:52:00,54.0,53.0,-100.00,East,84,7.0,11.0,95,0.00,,,0.00,1.000000,,2013-09-13 11:52:00,
2013-09-13 06:01:00,54.0,53.0,-100.00,East,84,7.0,11.0,95,0.00,,,0.00,1.000000,,2013-09-13 12:01:00,
2013-09-13 06:11:00,54.0,53.0,-100.00,East,84,7.0,11.0,95,0.00,,,0.00,1.000000,,2013-09-13 12:11:00,
2013-09-13 06:42:00,55.0,53.0,-100.00,East,90,6.0,10.0,94,0.00,,,0.00,1.000000,,2013-09-13 12:42:00,
2013-09-13 06:52:00,55.0,53.0,-100.00,East,90,6.0,10.0,94,0.00,,,0.00,1.000000,,2013-09-13 12:52:00,
2013-09-13 07:02:00,55.0,53.0,-100.00,East,90,6.0,10.0,94,0.00,,,0.00,1.000000,,2013-09-13 13:02:00,
2013-09-13 07:11:00,55.0,53.0,-100.00,East,90,6.0,10.0,94,0.00,,,0.00,1.000000,,2013-09-13 13:11:00,
2013-09-13 07:42:00,55.0,53.0,-100.00,East,84,9.0,12.0,94,0.00,,,0.00,5.000000,,2013-09-13 13:42:00,
2013-09-13 07:52:00,55.0,53.0,-100.00,East,84,9.0,12.0,94,0.00,,,0.00,5.000000,,2013-09-13 13:52:00,
2013-09-13 08:02:00,55.0,53.0,-100.00,East,84,9.0,12.0,94,0.00,,,0.00,5.000000,,2013-09-13 14:02:00,
2013-09-13 08:11:00,55.0,53.0,-100.00,East,84,9.0,12.0,94,0.00,,,0.00,5.000000,,2013-09-13 14:11:00,
2013-09-13 08:42:00,58.0,55.0,-100.00,East,87,9.0,12.0,91,0.00,,,0.00,71.000000,,2013-09-13 14:42:00,
2013-09-13 08:52:00,58.0,55.0,-100.00,East,87,9.0,12.0,91,0.00,,,0.00,71.000000,,2013-09-13 14:52:00,
2013-09-13 09:02:00,58.0,55.0,-100.00,East,87,9.0,12.0,91,0.00,,,0.00,71.000000,,2013-09-13 15:02:00,
2013-09-13 09:11:00,58.0,55.0,-100.00,East,87,9.0,12.0,91,0.00,,,0.00,71.000000,,2013-09-13 15:11:00,
2013-09-13 09:43:00,60.0,56.0,-100.00,East,89,8.0,13.0,88,0.00,,,-99.99,211.000000,,2013-09-13 15:43:00,
2013-09-13 09:53:00,60.0,56.0,-100.00,East,89,8.0,13.0,88,0.00,,,-99.99,211.000000,,2013-09-13 15:53:00,
2013-09-13 10:03:00,60.0,56.0,-100.00,East,89,8.0,13.0,88,0.00,,,-99.99,211.000000,,2013-09-13 16:03:00,
2013-09-13 10:12:00,60.0,56.0,-100.00,East,89,8.0,13.0,88,0.00,,,-99.99,211.000000,,2013-09-13 16:12:00,
2013-09-13 10:43:00,64.0,55.0,-100.00,ESE,110,9.0,13.0,73,0.00,,,0.00,357.000000,,2013-09-13 16:43:00,
2013-09-13 10:54:00,64.0,55.0,-100.00,ESE,110,9.0,13.0,73,0.00,,,0.00,357.000000,,2013-09-13 16:54:00,
2013-09-13 11:04:00,64.0,55.0,-100.00,ESE,110,9.0,13.0,73,0.00,,,0.00,357.000000,,2013-09-13 17:04:00,
2013-09-13 11:13:00,64.0,55.0,-100.00,ESE,110,9.0,13.0,73,0.00,,,0.00,357.000000,,2013-09-13 17:13:00,
2013-09-13 11:44:00,65.0,55.0,-100.00,East,88,9.0,15.0,70,0.00,,,0.00,444.000000,,2013-09-13 17:44:00,
2013-09-13 11:53:00,65.0,55.0,-100.00,East,88,9.0,15.0,70,0.00,,,0.00,444.000000,,2013-09-13 17:53:00,
2013-09-13 12:02:00,65.0,55.0,-100.00,East,88,9.0,15.0,70,0.00,,,0.00,444.000000,,2013-09-13 18:02:00,
2013-09-13 12:12:00,65.0,55.0,-100.00,East,88,9.0,15.0,70,0.00,,,0.00,444.000000,,2013-09-13 18:12:00,
2013-09-13 13:43:00,68.0,52.0,-100.00,East,92,10.0,20.0,57,-99.99,,,0.00,744.000000,,2013-09-13 19:43:00,
2013-09-13 13:52:00,68.0,52.0,-100.00,East,92,10.0,20.0,57,-99.99,,,0.00,744.000000,,2013-09-13 19:52:00,
2013-09-13 14:02:00,68.0,52.0,-100.00,East,92,10.0,20.0,57,-99.99,,,0.00,744.000000,,2013-09-13 20:02:00,
2013-09-13 14:11:00,68.0,52.0,-100.00,East,92,10.0,20.0,57,-99.99,,,0.00,744.000000,,2013-09-13 20:11:00,
2013-09-13 14:43:00,67.0,52.0,-100.00,SE,126,10.0,18.0,59,0.00,,,0.00,539.000000,,2013-09-13 20:43:00,
2013-09-13 14:52:00,67.0,52.0,-100.00,SE,126,10.0,18.0,59,0.00,,,0.00,539.000000,,2013-09-13 20:52:00,
2013-09-13 15:02:00,67.0,52.0,-100.00,SE,126,10.0,18.0,59,0.00,,,0.00,539.000000,,2013-09-13 21:02:00,
2013-09-13 15:11:00,67.0,52.0,-100.00,SE,126,10.0,18.0,59,0.00,,,0.00,539.000000,,2013-09-13 21:11:00,
2013-09-13 15:44:00,68.0,52.0,-100.00,SE,130,15.0,23.0,56,0.00,,,0.00,541.000000,,2013-09-13 21:44:00,
2013-09-13 15:54:00,68.0,52.0,-100.00,SE,130,15.0,23.0,56,0.00,,,0.00,541.000000,,2013-09-13 21:54:00,
2013-09-13 16:04:00,68.0,52.0,-100.00,SE,130,15.0,23.0,56,0.00,,,0.00,541.000000,,2013-09-13 22:04:00,
2013-09-13 16:13:00,68.0,52.0,-100.00,SE,130,15.0,23.0,56,0.00,,,0.00,541.000000,,2013-09-13 22:13:00,
2013-09-13 16:43:00,69.0,51.0,-100.00,SE,133,14.0,23.0,52,0.00,,,0.00,674.000000,,2013-09-13 22:43:00,
2013-09-13 16:53:00,69.0,51.0,-100.00,SE,133,14.0,23.0,52,0.00,,,0.00,674.000000,,2013-09-13 22:53:00,
2013-09-13 17:03:00,69.0,51.0,-100.00,SE,133,14.0,23.0,52,0.00,,,0.00,674.000000,,2013-09-13 23:03:00,
2013-09-13 17:12:00,69.0,51.0,-100.00,SE,133,14.0,23.0,52,0.00,,,0.00,674.000000,,2013-09-13 23:12:00,
2013-09-13 17:43:00,67.0,49.0,-100.00,SE,141,10.0,18.0,53,0.00,,,0.00,348.000000,,2013-09-13 23:43:00,
2013-09-13 17:52:00,67.0,49.0,-100.00,SE,141,10.0,18.0,53,0.00,,,0.00,348.000000,,2013-09-13 23:52:00,
2013-09-13 18:01:00,67.0,49.0,-100.00,SE,141,10.0,18.0,53,0.00,,,0.00,348.000000,,2013-09-14 00:01:00,
2013-09-13 18:11:00,67.0,49.0,-100.00,SE,141,10.0,18.0,53,0.00,,,0.00,348.000000,,2013-09-14 00:11:00,
2013-09-13 18:42:00,64.0,51.0,-100.00,ESE,123,13.0,20.0,63,0.00,,,0.00,142.000000,,2013-09-14 00:42:00,
2013-09-13 18:52:00,64.0,51.0,-100.00,ESE,123,13.0,20.0,63,0.00,,,0.00,142.000000,,2013-09-14 00:52:00,
2013-09-13 19:02:00,64.0,51.0,-100.00,ESE,123,13.0,20.0,63,0.00,,,0.00,142.000000,,2013-09-14 01:02:00,
2013-09-13 19:11:00,64.0,51.0,-100.00,ESE,123,13.0,20.0,63,0.00,,,0.00,142.000000,,2013-09-14 01:11:00,
2013-09-13 19:42:00,61.0,51.0,-100.00,SE,130,11.0,18.0,69,0.00,,,0.00,79.000000,,2013-09-14 01:42:00,
2013-09-13 19:52:00,61.0,51.0,-100.00,SE,130,11.0,18.0,69,0.00,,,0.00,79.000000,,2013-09-14 01:52:00,
2013-09-13 20:02:00,61.0,51.0,-100.00,SE,130,11.0,18.0,69,0.00,,,0.00,79.000000,,2013-09-14 02:02:00,
2013-09-13 20:12:00,61.0,51.0,-100.00,SE,130,11.0,18.0,69,0.00,,,0.00,79.000000,,2013-09-14 02:12:00,
2013-09-13 20:42:00,60.0,52.0,-100.00,ESE,123,12.0,18.0,74,0.00,,,0.00,3.000000,,2013-09-14 02:42:00,
2013-09-13 20:52:00,60.0,52.0,-100.00,ESE,123,12.0,18.0,74,0.00,,,0.00,3.000000,,2013-09-14 02:52:00,
2013-09-13 21:02:00,60.0,52.0,-100.00,ESE,123,12.0,18.0,74,0.00,,,0.00,3.000000,,2013-09-14 03:02:00,
2013-09-13 21:11:00,60.0,52.0,-100.00,ESE,123,12.0,18.0,74,0.00,,,0.00,3.000000,,2013-09-14 03:11:00,
2013-09-13 21:44:00,60.0,52.0,-100.00,ESE,110,11.0,18.0,74,0.00,,,0.00,1.000000,,2013-09-14 03:44:00,
2013-09-13 21:55:00,60.0,52.0,-100.00,ESE,110,11.0,18.0,74,0.00,,,0.00,1.000000,,2013-09-14 03:55:00,
2013-09-13 22:04:00,60.0,52.0,-100.00,ESE,110,11.0,18.0,74,0.00,,,0.00,1.000000,,2013-09-14 04:04:00,
2013-09-13 22:14:00,60.0,52.0,-100.00,ESE,110,11.0,18.0,74,0.00,,,0.00,1.000000,,2013-09-14 04:14:00,
2013-09-13 22:43:00,60.0,52.0,-100.00,SE,136,10.0,16.0,74,0.00,,,0.00,1.000000,,2013-09-14 04:43:00,
2013-09-13 22:54:00,60.0,52.0,-100.00,SE,136,10.0,16.0,74,0.00,,,0.00,1.000000,,2013-09-14 04:54:00,
2013-09-13 23:03:00,60.0,52.0,-100.00,SE,136,10.0,16.0,74,0.00,,,0.00,1.000000,,2013-09-14 05:03:00,
2013-09-13 23:13:00,60.0,52.0,-100.00,SE,136,10.0,16.0,74,0.00,,,0.00,1.000000,,2013-09-14 05:13:00,
2013-09-13 23:43:00,59.0,51.0,-100.00,East,98,2.0,15.0,76,0.00,,,0.00,1.000000,,2013-09-14 05:43:00,
2013-09-13 23:52:00,59.0,51.0,-100.00,East,98,2.0,15.0,76,0.00,,,0.00,1.000000,,2013-09-14 05:52:00,